Wind_Speed
40 37 33 29 29 29 30 31 32 32 30 33 38 40 41 43 43 44 45 46 46 46 46 46 46 46 46 47 49 50 51 52 52 53 55 55 57 58 60 62 64 62 60 56
41 40 40 40 37 35 33 31 33 35 35 43 47 48 48 48 48 49 50 52 52 51 50 49 48 48 48 48 49 50 51 52 52 53 55 57 58 59 61 61 61 60 55 52
40 39 39 42 41 40 41 40 41 42 45 49 49 48 48 48 48 49 50 51 52 51 50 48 48 47 48 48 49 49 50 51 52 53 55 57 58 59 60 60 58 53 50 49
37 37 39 36 36 39 42 45 45 46 48 48 46 45 45 47 48 49 49 50 50 50 49 48 48 47 47 47 47 48 49 50 51 53 55 57 58 58 57 55 52 50 48 48
34 34 32 30 35 38 40 43 43 44 44 44 44 45 45 46 46 47 47 47 48 48 47 47 46 45 44 44 45 45 47 49 50 53 55 55 55 54 52 50 48 46 47 47
31 31 29 33 36 37 36 39 39 39 39 39 40 42 43 43 44 44 44 44 44 44 44 43 42 41 42 41 42 44 46 49 51 53 53 52 51 49 48 46 45 46 46 46
28 30 31 34 36 36 37 40 38 37 37 37 38 39 40 40 41 41 40 40 40 39 39 38 37 38 38 39 41 43 47 48 49 49 48 47 46 44 43 43 43 44 43 42
26 28 33 34 34 34 35 36 36 35 35 35 36 36 36 36 36 36 35 35 34 33 32 32 33 34 35 37 40 42 43 43 44 43 42 42 42 42 42 41 40 39 38 36
25 27 29 30 30 31 32 33 33 33 33 33 33 33 32 32 31 30 29 29 28 27 28 29 30 32 34 36 37 37 37 37 37 37 38 39 39 39 38 37 35 34 32 30
26 28 28 27 28 28 29 29 29 29 29 29 29 28 27 26 25 25 24 24 24 24 25 26 28 30 30 30 30 31 32 33 34 35 36 36 36 35 34 32 30 28 26 24
24 26 26 26 26 25 25 25 24 24 23 22 21 21 21 20 19 19 19 19 19 20 21 23 23 24 25 27 28 29 31 32 33 34 34 33 32 31 28 26 24 23 21 20
22 23 23 23 22 22 21 20 19 18 17 17 15 14 14 14 13 14 15 16 17 17 18 19 20 22 24 26 28 29 31 32 32 32 31 29 27 25 23 22 20 19 18 17
20 20 20 20 20 19 18 16 14 13 12 11 10 9 9 9 10 11 12 13 14 14 16 17 19 21 23 25 27 29 30 30 30 29 27 25 23 21 20 18 17 16 15 14
17 17 16 16 15 14 13 12 10 9 8 7 7 7 7 8 9 9 10 10 12 13 15 17 19 22 24 26 28 29 28 27 27 25 24 22 20 19 17 16 14 13 13 11
13 13 12 11 11 10 9 8 8 6 6 6 5 5 5 5 6 7 8 10 12 14 16 18 21 23 25 27 28 27 27 26 25 23 21 19 17 16 14 13 12 11 10 9
9 9 9 8 8 7 7 7 7 5 5 4 2 2 2 3 5 6 8 10 12 14 17 20 22 25 26 27 26 25 25 24 23 20 18 17 15 14 12 11 10 9 8 7
5 6 7 6 6 6 6 6 6 5 4 3 2 1 1 3 5 6 8 10 13 16 19 22 24 26 27 27 27 27 25 23 21 18 16 15 13 12 10 9 9 8 7 7
4 4 4 4 5 6 6 6 6 5 4 3 2 1 2 3 4 6 8 11 14 17 20 23 25 27 27 27 26 25 23 22 20 17 15 13 12 10 9 8 8 8 8 8
3 3 3 4 5 6 7 6 6 5 4 4 3 3 3 4 5 7 10 13 15 19 22 24 26 26 26 26 26 24 23 22 19 17 14 12 10 9 8 8 8 9 10 10
5 3 3 4 5 5 6 6 6 6 5 4 4 4 5 5 7 9 11 14 17 21 23 24 25 27 28 27 26 25 24 22 20 17 14 12 10 9 9 9 9 10 11 12
7 5 4 3 4 5 5 5 6 6 6 6 6 6 6 7 8 10 12 15 18 21 22 24 26 28 29 28 28 28 26 24 21 18 15 13 12 11 11 11 11 12 13 14
7 6 5 4 4 5 5 6 6 7 7 7 7 7 8 9 9 11 13 16 18 20 22 25 28 29 29 29 30 29 28 26 23 20 17 15 13 13 13 13 14 14 15 16
8 7 6 5 5 5 6 7 8 8 9 9 9 8 9 10 10 12 14 16 18 20 23 26 28 29 30 32 32 32 31 29 27 23 20 18 16 16 15 16 16 16 17 17
8 7 6 6 6 6 7 8 9 9 10 10 10 10 10 10 11 12 13 15 18 20 23 26 28 30 31 34 34 34 33 32 31 28 24 22 20 19 18 18 18 18 18 18
8 8 7 6 6 7 8 9 10 11 12 12 11 11 11 11 11 12 13 15 17 19 22 25 28 30 33 35 35 36 36 35 34 33 30 27 24 23 22 21 21 21 20 19
10 9 8 7 8 8 9 11 12 12 13 13 13 12 12 11 11 12 12 13 16 18 21 24 27 30 33 35 36 37 37 38 37 36 34 32 29 27 25 24 23 22 21 21
11 10 10 9 9 9 10 11 13 14 14 15 14 14 13 12 11 11 11 12 14 16 19 22 25 28 31 33 35 37 38 38 39 38 37 35 33 31 29 27 26 25 24 23
Wind_Direction
239 229 230 237 237 234 231 231 239 245 252 258 260 261 261 263 265 269 276 283 285 286 284 283 282 282 283 284 284 285 286 287 289 290 290 291 291 291 291 290 291 293 293 294
244 240 235 237 239 240 241 245 250 256 262 260 260 261 265 269 272 275 279 282 284 284 284 284 284 284 284 283 283 284 285 286 288 290 290 290 290 290 290 291 293 294 295 297
249 248 246 245 246 249 251 252 253 256 258 263 267 270 273 275 276 277 279 280 282 284 285 285 285 284 284 284 284 284 285 286 288 289 289 290 290 290 291 293 295 295 297 300
251 250 250 253 252 251 253 255 258 260 265 269 273 275 275 276 277 278 280 282 283 284 285 286 286 285 285 284 284 285 285 286 287 287 288 288 289 290 291 293 294 297 300 302
252 252 254 251 252 255 256 259 261 265 268 271 273 275 275 277 278 280 281 282 283 284 285 285 286 286 285 284 283 284 285 286 286 286 287 287 289 291 293 296 300 303 303 303
251 250 244 244 249 255 259 261 265 268 271 273 273 275 277 278 279 281 282 283 284 284 285 285 285 285 284 283 282 283 284 286 286 286 286 289 292 296 299 301 303 304 304 304
251 249 244 247 252 256 258 264 271 273 274 274 274 276 278 280 281 282 284 284 285 285 285 286 284 283 283 284 283 283 284 284 286 288 292 295 298 301 302 303 304 304 305 306
251 248 247 252 255 258 264 269 272 274 275 276 276 277 279 281 282 284 285 285 286 286 287 287 286 284 284 284 285 285 285 288 291 295 298 300 301 303 304 305 306 306 307 308
254 255 256 258 261 263 266 269 272 274 275 276 277 279 280 281 282 284 285 287 288 288 289 288 287 284 284 285 287 291 295 298 301 303 304 304 305 306 307 307 308 309 310 311
254 258 260 263 265 267 268 270 273 274 275 275 277 279 280 281 282 283 286 288 290 290 290 289 289 290 292 295 299 302 303 304 304 305 306 307 308 309 309 310 312 313 315 316
255 259 262 264 266 268 270 273 273 273 274 274 275 279 280 282 283 286 289 291 292 295 296 297 298 301 304 306 306 307 307 308 309 310 311 312 313 313 313 314 316 317 319 320
257 258 261 264 265 267 271 270 270 270 271 271 275 281 282 284 287 290 294 296 298 302 305 308 310 310 310 311 312 313 313 314 315 316 317 318 318 319 319 319 321 322 324 324
260 262 263 265 265 266 268 266 264 265 267 269 269 277 283 286 292 296 299 305 310 314 316 317 317 318 318 319 320 321 321 322 322 323 324 324 324 325 325 326 326 327 329 329
263 262 261 261 260 260 260 256 253 256 256 258 266 277 286 291 298 306 314 321 325 326 327 327 327 327 327 328 328 328 328 328 329 329 329 329 330 330 330 331 331 333 334 335
258 254 253 252 249 246 244 243 242 242 242 248 259 272 288 301 320 330 335 338 338 337 336 336 336 336 336 336 335 335 335 334 334 334 334 335 336 336 336 337 338 341 344 348
250 242 240 241 237 230 228 232 231 229 232 225 229 249 296 326 341 348 349 350 348 347 346 345 345 344 343 342 341 341 340 340 339 339 339 340 342 344 346 348 351 354 0 10
243 233 231 233 231 230 226 219 213 211 193 182 188 204 337 357 5 5 4 2 359 358 357 355 353 351 350 349 349 348 347 347 346 346 347 348 350 354 358 2 5 12 24 43
232 225 224 222 218 211 208 199 188 172 165 166 159 116 52 38 31 27 20 15 11 8 6 3 1 360 358 357 356 353 354 355 355 355 355 357 1 6 11 17 24 38 55 71
227 206 201 200 195 188 179 172 168 170 165 159 142 112 87 71 56 41 32 25 20 17 14 11 8 7 6 5 3 3 5 4 4 4 5 9 16 24 31 40 53 65 76 84
209 189 173 170 169 166 166 166 166 167 165 158 142 122 107 88 67 53 42 34 29 24 20 17 16 16 15 13 12 15 15 13 13 14 18 25 35 44 52 62 72 79 87 91
207 190 175 175 171 165 164 169 172 172 167 157 143 130 114 95 75 61 50 42 36 30 25 24 25 24 23 20 22 24 22 21 22 25 32 40 49 60 67 74 82 88 93 93
217 214 210 196 188 186 183 181 177 172 165 157 147 133 117 100 82 69 57 48 41 36 32 32 32 30 28 27 29 29 28 29 31 35 42 50 60 71 77 81 87 92 94 94
220 220 219 212 198 191 186 180 176 172 165 158 149 136 121 105 89 76 64 54 47 42 39 38 37 36 34 34 35 35 35 36 38 43 51 59 67 75 81 84 89 93 93 93
213 215 215 208 203 196 188 182 179 173 168 162 152 140 128 112 97 83 71 60 53 47 44 43 43 41 40 40 40 40 41 42 45 49 56 64 70 76 82 86 89 91 92 93
213 216 217 215 207 198 190 185 180 175 171 165 156 146 134 119 105 92 78 67 59 54 51 49 48 46 45 45 44 44 45 47 50 54 59 65 71 76 81 85 88 88 89 89
215 217 215 213 205 197 191 187 182 178 174 168 160 151 141 128 115 102 87 74 66 60 57 55 53 51 50 49 48 48 49 51 53 56 59 64 69 74 78 82 84 84 84 84
213 214 214 210 205 201 194 188 184 181 178 172 165 157 149 139 127 113 98 84 74 67 62 59 56 54 53 52 51 52 53 54 55 57 60 64 68 71 75 77 79 80 79 79
Height
5749 5754 5755 5756 5758 5759 5761 5762 5763 5764 5764 5760 5753 5754 5754 5753 5753 5751 5748 5744 5743 5742 5740 5738 5736 5733 5731 5728 5724 5721 5717 5714 5710 5706 5702 5697 5692 5687 5681 5676 5670 5664 5658 5653
5738 5743 5746 5747 5749 5751 5751 5752 5753 5754 5754 5745 5744 5744 5745 5746 5745 5743 5740 5736 5733 5731 5729 5727 5724 5721 5719 5715 5712 5708 5705 5701 5697 5693 5689 5684 5679 5674 5668 5662 5656 5651 5646 5641
5729 5733 5734 5738 5741 5742 5743 5743 5741 5740 5737 5734 5735 5736 5737 5736 5734 5732 5729 5726 5723 5720 5717 5714 5712 5709 5706 5703 5699 5696 5693 5689 5685 5681 5677 5672 5666 5661 5656 5650 5644 5639 5634 5629
5719 5722 5724 5731 5728 5729 5731 5729 5729 5728 5726 5726 5727 5726 5726 5724 5722 5720 5718 5715 5711 5708 5705 5703 5700 5697 5694 5690 5687 5684 5681 5677 5673 5669 5665 5660 5654 5649 5643 5638 5633 5628 5622 5616
5710 5713 5716 5718 5716 5718 5720 5717 5718 5719 5718 5718 5717 5715 5714 5713 5711 5709 5706 5703 5700 5697 5694 5690 5687 5685 5682 5679 5676 5673 5670 5666 5662 5658 5653 5648 5642 5637 5631 5626 5620 5615 5610 5605
5702 5705 5708 5706 5706 5708 5711 5707 5709 5709 5709 5708 5707 5705 5703 5702 5699 5697 5694 5692 5689 5685 5682 5679 5677 5674 5671 5668 5666 5663 5659 5655 5651 5646 5641 5636 5630 5625 5620 5615 5609 5604 5599 5594
5694 5696 5697 5696 5698 5700 5702 5699 5700 5699 5699 5698 5696 5695 5693 5691 5688 5686 5684 5681 5678 5675 5672 5670 5667 5665 5662 5659 5656 5653 5649 5644 5640 5634 5629 5625 5619 5614 5609 5604 5599 5594 5588 5583
5686 5687 5689 5688 5690 5692 5692 5691 5690 5689 5689 5688 5686 5684 5683 5681 5679 5677 5674 5671 5669 5666 5664 5661 5659 5656 5653 5650 5647 5643 5638 5634 5629 5624 5619 5615 5610 5604 5599 5593 5588 5583 5578 5572
5680 5681 5680 5681 5682 5683 5683 5683 5682 5681 5680 5679 5677 5676 5674 5673 5671 5669 5666 5664 5662 5659 5657 5654 5652 5649 5646 5642 5639 5634 5629 5625 5620 5615 5610 5605 5600 5595 5589 5584 5579 5574 5569 5564
5674 5673 5674 5674 5675 5675 5675 5675 5674 5673 5672 5670 5669 5668 5667 5665 5663 5662 5660 5658 5655 5653 5651 5648 5645 5642 5638 5634 5630 5626 5622 5617 5612 5607 5601 5596 5590 5585 5580 5575 5570 5565 5561 5557
5668 5668 5668 5668 5668 5668 5668 5667 5667 5666 5665 5664 5663 5662 5661 5659 5658 5656 5655 5653 5651 5648 5646 5643 5640 5636 5633 5629 5624 5620 5615 5610 5604 5599 5593 5587 5582 5576 5572 5567 5563 5559 5555 5551
5662 5662 5662 5662 5662 5662 5662 5661 5661 5660 5660 5659 5658 5657 5656 5655 5654 5653 5651 5649 5647 5645 5642 5639 5636 5632 5628 5623 5619 5613 5608 5602 5596 5590 5585 5579 5574 5569 5564 5561 5557 5554 5550 5547
5657 5656 5656 5656 5656 5657 5657 5656 5656 5656 5656 5656 5655 5654 5654 5653 5652 5650 5649 5647 5644 5642 5639 5636 5632 5628 5624 5618 5613 5607 5601 5594 5588 5583 5577 5573 5568 5564 5560 5557 5553 5550 5547 5545
5652 5651 5651 5652 5652 5652 5652 5652 5653 5653 5653 5653 5653 5653 5652 5651 5650 5649 5647 5645 5643 5640 5637 5633 5629 5625 5619 5613 5607 5601 5595 5589 5583 5577 5572 5568 5564 5560 5556 5553 5551 5548 5546 5543
5648 5648 5648 5648 5648 5649 5650 5650 5651 5651 5652 5652 5652 5651 5651 5650 5649 5648 5646 5644 5642 5639 5636 5631 5627 5621 5615 5609 5602 5596 5590 5584 5578 5573 5568 5564 5560 5557 5554 5551 5549 5547 5544 5542
5645 5645 5646 5646 5647 5647 5648 5649 5650 5650 5651 5651 5651 5651 5651 5650 5649 5648 5646 5644 5642 5638 5634 5629 5624 5618 5612 5605 5599 5593 5586 5580 5575 5570 5565 5562 5558 5555 5553 5550 5548 5546 5544 5542
5644 5644 5645 5645 5646 5646 5647 5648 5649 5650 5651 5651 5651 5651 5651 5650 5649 5648 5647 5645 5642 5638 5633 5628 5622 5616 5609 5602 5595 5589 5583 5577 5572 5568 5564 5560 5557 5554 5552 5550 5548 5546 5545 5544
5644 5644 5644 5645 5646 5646 5647 5648 5649 5650 5651 5652 5652 5652 5651 5651 5651 5649 5648 5645 5642 5638 5633 5627 5621 5615 5608 5601 5595 5588 5582 5576 5571 5566 5563 5559 5557 5554 5552 5550 5549 5548 5547 5546
5644 5644 5645 5645 5646 5647 5648 5649 5650 5651 5652 5652 5652 5653 5653 5653 5652 5651 5649 5646 5643 5639 5634 5628 5622 5616 5609 5602 5595 5588 5582 5576 5571 5566 5563 5560 5557 5555 5553 5552 5551 5550 5550 5550
5645 5645 5646 5646 5647 5648 5649 5650 5651 5652 5653 5653 5654 5654 5654 5654 5654 5652 5651 5648 5644 5640 5635 5630 5624 5618 5610 5604 5597 5589 5583 5577 5572 5567 5564 5561 5559 5557 5555 5554 5554 5553 5553 5553
5645 5646 5647 5648 5648 5649 5650 5651 5652 5653 5654 5654 5655 5656 5656 5656 5656 5655 5653 5650 5647 5643 5639 5633 5627 5620 5613 5607 5599 5592 5586 5580 5574 5569 5566 5563 5561 5560 5559 5558 5557 5557 5558 5558
5645 5646 5647 5648 5649 5650 5651 5652 5653 5654 5655 5656 5657 5658 5658 5658 5658 5657 5655 5653 5650 5647 5642 5637 5630 5624 5618 5611 5603 5596 5590 5583 5578 5573 5569 5567 5565 5564 5563 5562 5562 5562 5563 5563
5644 5646 5647 5648 5649 5650 5651 5652 5653 5655 5656 5658 5659 5660 5661 5661 5661 5660 5659 5657 5654 5651 5646 5641 5635 5629 5624 5616 5609 5602 5595 5589 5583 5578 5574 5572 5570 5569 5568 5568 5568 5568 5569 5569
5644 5646 5647 5648 5649 5650 5651 5653 5654 5656 5658 5659 5661 5662 5663 5663 5663 5663 5662 5660 5658 5655 5651 5646 5641 5635 5630 5623 5615 5609 5602 5596 5590 5585 5581 5578 5576 5575 5575 5574 5574 5575 5575 5575
5643 5645 5647 5648 5649 5650 5652 5653 5655 5657 5659 5661 5663 5664 5665 5666 5666 5666 5666 5664 5662 5660 5656 5652 5647 5642 5636 5630 5623 5617 5611 5605 5599 5594 5589 5586 5584 5583 5582 5582 5582 5582 5582 5582
5642 5644 5646 5647 5649 5650 5652 5653 5655 5658 5660 5662 5664 5666 5667 5668 5669 5669 5669 5668 5667 5665 5662 5658 5654 5649 5644 5638 5633 5627 5621 5615 5609 5604 5600 5596 5594 5592 5591 5591 5590 5590 5590 5589
5641 5643 5645 5647 5648 5650 5652 5654 5656 5658 5661 5663 5666 5668 5669 5671 5672 5672 5673 5672 5671 5669 5667 5664 5660 5656 5652 5647 5642 5637 5632 5626 5621 5616 5611 5608 5605 5603 5601 5600 5599 5599 5598 5597